This is the latest recevied weather packets stored in our database for station/object PP5MGT-13. If no packets are shown the sender has not sent any weather packets the latest 10 day(s).
| Time | Temp. | Humidity | Pressure | Rain* | Wind** | Luminosity | Snow |
|---|---|---|---|---|---|---|---|
| 1777383659 | 20° C | 71% | 1020.3 hPa | - | - | - | - |
| 1777381857 | 19.44° C | 73% | 1020.3 hPa | - | - | - | - |
| 1777380954 | 18.89° C | 77% | 1020 hPa | - | - | - | - |
| 1777380053 | 18.89° C | 78% | 1020 hPa | - | - | - | - |
| 1777379152 | 18.89° C | 79% | 1020 hPa | - | - | - | - |
| 1777378252 | 18.89° C | 81% | 1019.9 hPa | - | - | - | - |
| 1777377351 | 17.78° C | 84% | 1019.7 hPa | - | - | - | - |
| 1777376450 | 17.78° C | 85% | 1019.5 hPa | - | - | - | - |
| 1777375550 | 17.78° C | 86% | 1019.5 hPa | - | - | - | - |
| 1777374649 | 17.78° C | 87% | 1019.4 hPa | - | - | - | - |
| 1777373748 | 17.78° C | 85% | 1018.8 hPa | - | - | - | - |
| 1777372848 | 17.78° C | 85% | 1018.7 hPa | - | - | - | - |
| 1777371945 | 17.78° C | 85% | 1018.5 hPa | - | - | - | - |
| 1777371044 | 17.22° C | 85% | 1018.4 hPa | - | - | - | - |
| 1777370143 | 17.78° C | 87% | 1018.2 hPa | - | - | - | - |
| 1777369243 | 17.78° C | 87% | 1018.1 hPa | - | - | - | - |
| 1777368339 | 17.78° C | 88% | 1017.9 hPa | - | - | - | - |
| 1777366537 | 17.78° C | 87% | 1017.4 hPa | - | - | - | - |
| 1777365637 | 17.78° C | 87% | 1017.3 hPa | - | - | - | - |
| 1777363834 | 17.78° C | 88% | 1017.3 hPa | - | - | - | - |
| 1777362933 | 17.78° C | 86% | 1016.9 hPa | - | - | - | - |
| 1777362032 | 17.78° C | 86% | 1016.9 hPa | - | - | - | - |
| 1777361131 | 17.78° C | 86% | 1016.9 hPa | - | - | - | - |
| 1777360230 | 17.78° C | 86% | 1016.8 hPa | - | - | - | - |
| 1777359329 | 17.78° C | 83% | 1016.6 hPa | - | - | - | - |
* Rain since midnight (hover to see other rain measurements)
** Current wind speed in m/s (hover to see current wind gust speed)